Regional Weather Roundup
Issued by NWS

Home | Current Version | Previous Version | Text Only | Print | Product List | Glossary On
Versions: 1 2 3 4 5 6 7 8 9 10 11 12 13 14 15 16 17 18 19 20 21 22 23 24 25 26 27 28 29 30 31 32 33 34 35 36 37 38 39 40 41 42 43 44 45 46 47 48 49 50
867
ASUS43 KMPX 091001
RWRMN
WEATHER ROUNDUP FOR MINNESOTA
NATIONAL WEATHER SERVICE TWIN CITIES/CHANHASSEN MN
400 AM CST TUE FEB 09 2016


NOTE: "FAIR" INDICATES FEW OR NO CLOUDS BELOW 12,000 FEET WITH NO
SIGNIFICANT WEATHER AND/OR OBSTRUCTIONS TO VISIBILITY. N/A MEANS
CURRENT SKY AND/OR WEATHER CONDITIONS ARE NOT AVAILABLE.

MNZ060>063-068>070-091100-
   Twin Cities Metro

CITY           SKY/WX    TMP DP  RH WIND       PRES   REMARKS
TWIN CITIES    MOCLDY     8   0  69 N17G23    30.04R WCI -10
ST PAUL        MOCLDY     8  -1  66 N18G28    30.05R WCI -11
CRYSTAL        CLEAR      8   0  69 NW12G28   30.03R WCI  -7
BLAINE         CLEAR      9   1  72 NW10      30.03R WCI  -6
LAKEVILLE      CLOUDY     9   1  72 NW14G25   30.01R WCI  -8
EDEN PRAIRIE   MOCLDY     9   0  67 NW14      30.03R WCI  -7
SOUTH ST PAUL  CLOUDY     9   0  67 NW17      30.03R WCI  -9
LAKE ELMO      MOCLDY     9   1  72 NW9G17    30.02R WCI  -5
$$
MNZ001>005-007-008-013>017-022>024-027-028-091100-
   Northwest Minnesota

CITY           SKY/WX    TMP DP  RH WIND       PRES   REMARKS
BEMIDJI        CLOUDY    -2  -5  86 NW12      30.13R WCI -19
HALLOCK        CLOUDY     3  -2  78 NW6       30.25F WCI  -8
ROSEAU         PTCLDY    -4  -9  77 CALM      30.20S
WARROAD        PTCLDY    -4  -8  84 NW7       30.19S WCI -18
CROOKSTON      PTCLDY     1  -2  85 N7        30.25F WCI -11
FOSSTON        CLOUDY    -2  -6  84 NW7       30.19S WCI -16
DETROIT LAKES  CLOUDY     3   0  85 N13       30.17S WCI -14
MOORHEAD       CLEAR      3   0  85 N12       30.24F WCI -13
PARK RAPIDS    MOCLDY     3  -3  76 N14G24    30.11R WCI -15
MAHNOMEN       FAIR      -5  -9  84 NW9       30.19S WCI -21
$$
MNZ006-009>011-018-025>026-091100-
   North Central Minnesota

CITY           SKY/WX    TMP DP  RH WIND       PRES   REMARKS
BAUDETTE       CLOUDY    -3  -9  75 NW13      30.14R WCI -22
FLAG ISLAND    MOCLDY    -6  -9  84 NW13      30.17R WCI -25
INTL FALLS     CLOUDY    -1  -6  79 N10       30.08S WCI -17
WASKISH        CLOUDY    -4  -8  84 W6        30.14R WCI -16
LONGVILLE      CLEAR      1  -4  78 NW8       30.08R WCI -12
GRAND RAPIDS   CLOUDY     1  -6  71 N16       30.03R WCI -18
CRANE LAKE     CLOUDY     0  -4  85 N8        30.07S WCI -15
ORR            CLOUDY     0  -6  78 NW7       30.01S WCI -13
COOK           CLOUDY     0  -4  85 NW8       30.03R WCI -15
WALKER         CLOUDY     1  -4  78 NW10      30.10S WCI -14
$$
MNZ012-019>021-037-091100-
   Northeast Minnesota

CITY           SKY/WX    TMP DP  RH WIND       PRES   REMARKS
DULUTH         CLOUDY     2  -5  72 N18G24    29.94S WCI -19
ELY            CLOUDY     0  -4  85 NW8       29.97R WCI -15
HIBBING        CLOUDY    -2  -7  79 NW18      30.01R WCI -24
EVELETH        CLOUDY     1  -4  78 NW12G18   30.00R WCI -15
DULUTH HARBOR  MOCLDY     9   0  66 NW13G20   30.04R WCI  -7
TWO HARBORS    MOCLDY     7  -2  66 N6G20     29.93R WCI  -3
SILVER BAY     CLOUDY     5  -2  72 NW6G18    29.92R WCI  -6
GRAND MARAIS     N/A      6  -6  57 VRB3      29.93S
G MARAIS ARPRT LGT SNOW  -2  -9  71 NW20G32   29.80S WCI -25
$$
MNZ029>031-032-039>041-046>048-054>057-064-091100-
   West Central Minnesota

CITY           SKY/WX    TMP DP  RH WIND       PRES   REMARKS
FERGUS FALLS   CLEAR      3  -2  78 N16G23    30.24R WCI -16
WHEATON        CLEAR      7   1  78 NW16G23   30.25R WCI -11
MORRIS         CLEAR      5   0  78 N24G31    30.16S WCI -17
ALEXANDRIA     CLEAR      3  -3  76 NW15      30.12R WCI -16
ELBOW LAKE     FAIR       3  -1  81 NW15      30.18R WCI -15
WADENA         CLEAR      1  -4  78 NW14      30.11R WCI -17
GLENWOOD       CLEAR      3   0  85 NW16      30.12R WCI -16
APPLETON       PTCLDY     7   1  78 N20       30.19S WCI -13
BENSON         CLEAR      5   0  78 N15G23    30.15S WCI -13
ORTONVILLE     CLEAR      7   0  72 N16G28    30.20S WCI -11
MADISON        CLEAR      9   1  72 N23G30    30.19F WCI -12
WILLMAR        FAIR       7   1  78 NW13      30.12S WCI  -9
$$
MNZ033>034-036-042>043-049>051-058-059-091100-
   Central Minnesota

CITY           SKY/WX    TMP DP  RH WIND       PRES   REMARKS
ST CLOUD       CLEAR      5  -3  69 NW13G22   30.06R WCI -12
SAUK CENTRE    FAIR       4  -2  76 NW14      30.10R WCI -14
PAYNESVILLE    PTCLDY     5   0  78 NW10      30.09S WCI -10
AITKIN         CLOUDY     5  -6  61 NW8       30.04R WCI  -8
PINE RIVER     CLEAR      1  -2  85 NW12      30.11R WCI -15
BRAINERD       PTCLDY     3  -3  76 N15       30.07R WCI -16
STAPLES        CLEAR      1  -4  78 NW14G22   30.10R WCI -17
LONG PRAIRIE   FAIR       3  -2  78 NW14      30.09R WCI -15
LITTLE FALLS   CLEAR      5  -4  66 NW9       30.08S WCI  -9
LITCHFIELD     CLEAR      9   1  72 N18G29    30.08R WCI -10
BUFFALO        CLEAR      7  -1  69 NW14G22   30.06S WCI -10
MAPLE LAKE     CLEAR      8   1  75 NW10      30.07R WCI  -7
$$
MNZ037-044-045-052-053-091100-
   East Central Minnesota

CITY           SKY/WX    TMP DP  RH WIND       PRES   REMARKS
PRINCETON      CLEAR      7   0  72 NW14      30.05R WCI -10
MORA           CLEAR      5  -2  72 NW15G21   30.05R WCI -13
CAMBRIDGE      PTCLDY     7  -2  66 NW10G16   30.03R WCI  -8
RUSH CITY      CLOUDY     5  -2  73 NW9       30.03S WCI  -9
MOOSE LAKE     CLOUDY     3  -4  72 N7        30.01R WCI  -9
HINCKLEY       CLOUDY     5   0  78 NW13      30.02R WCI -12
CLOQUET        CLOUDY     1  -6  71 NW13G22   29.98R WCI -16
MCGREGOR       CLEAR      3  -2  78 NW14      30.03S WCI -15
$$
MNZ071>073-080-081-089-090-097-098-091100-
   Southwest Minnesota

CITY           SKY/WX    TMP DP  RH WIND       PRES   REMARKS
MONTEVIDEO     CLEAR      5   1  85 N17G28    30.17S WCI -14
GRANITE FALLS  PTCLDY     8   3  78 NW18G29   30.16F WCI -11
CANBY          PTCLDY    10   5  80 NW18G28   30.19S WCI  -8
MARSHALL       CLOUDY     6   1  80 N23       30.14R WCI -15
REDWOOD FALLS  CLEAR      7   1  76 NW15G24   30.12R WCI -10
OLIVIA         CLEAR     10   5  79 NW17      30.11R WCI  -7
PIPESTONE      CLEAR      7  -4  61 N16G23    30.10S WCI -11
WINDOM         PTCLDY     5   1  85 NW29G35   30.07R FOG     WCI -19
WORTHINGTON    CLOUDY     5  -2  72 N25       30.09R WCI -18
JACKSON        CLOUDY     7   1  78 NW26G32   30.07R HAZE    WCI -16
TRACY          CLEAR      7   2  82 N21G29    30.12R WCI -13
SLAYTON        CLOUDY     5   2  89 NW18G32   30.09S FOG     WCI -15
$$
MNZ065>067-074>077-082>085-091>093-091100-
   South Central Minnesota

CITY           SKY/WX    TMP DP  RH WIND       PRES   REMARKS
MANKATO        CLEAR     10   1  67 NW15      30.03R WCI  -6
NEW ULM        CLEAR      7   0  72 NW22      30.06S WCI -14
ST JAMES       PTCLDY     9   3  78 NW23      30.09R WCI -12
FAIRMONT       CLOUDY     9   1  72 NW24      30.04R WCI -12
GLENCOE        CLEAR     10   4  77 NW15      30.06R WCI  -7
FARIBAULT      PTCLDY     9   1  72 NW16G22   30.01R WCI  -9
OWATONNA       CLOUDY     9   3  78 NW17      29.99R WCI -10
WASECA         MOCLDY    10   3  72 NW18G24   30.02R WCI  -8
ALBERT LEA     CLOUDY     9   3  78 N14G22    29.98R WCI  -8
$$
MNZ078>079-086>088-094>096-091100-
   Southeast Minnesota

CITY           SKY/WX    TMP DP  RH WIND       PRES   REMARKS
ROCHESTER      CLOUDY     8   2  76 N18       29.94R WCI -11
RED WING       CLOUDY    10   0  61 NW8       29.99S WCI  -1
STANTON        PTCLDY    10   2  70 NW21G26   29.99R WCI  -9
DODGE CENTER   FLURRIES   9   3  78 N13       29.94R WCI  -7
WINONA         CLOUDY    12   3  67 N15G29    29.97R WCI  -4
AUSTIN         CLOUDY     9   3  78 NW13      29.95S WCI  -7
PRESTON        CLOUDY     7   0  73 N16G28    29.92R HAZE    WCI -11
$$
ABBREVIATIONS USED IN REMARKS
   TC - TEMPERATURES IN CELSIUS
  WCI - WIND CHILL INDEX
   HX - HEAT INDEX
  VSB - VISIBILITY
$$




USA.gov is the U.S. government's official web portal to all federal, state and local government web resources and services.